FW3819 Weather Reports


Display with metric or nautical units.
time (UTC)temp
F
wind
direction
speed
MPH
gust
MPH
rain 1hr
in
rain 24hr
in
rain mn
in
humidity
%
barometer
mb
20240615131947 71 53 1.0 8.0 0.00 0.06 0.00 71 1018.2
20240615130902 71 36 2.0 11.0 0.00 0.06 0.00 72 1018.0
20240615130401 70 38 2.0 11.0 0.00 0.06 0.00 73 1018.1
20240615125900 70 316 2.0 7.0 0.00 0.06 0.00 74 1018.1
20240615125401 70 31 2.0 8.0 0.00 0.06 0.00 74 1018.0
20240615124901 70 38 2.0 9.0 0.00 0.06 0.00 76 1018.1
20240615124401 70 311 2.0 9.0 0.00 0.06 0.00 78 1018.2
20240615123900 69 38 1.0 5.0 0.00 0.06 0.00 80 1018.1
20240615123402 69 13 2.0 8.0 0.00 0.06 0.00 80 1018.0
20240615123207 69 102 2.0 8.0 0.00 0.06 0.00 84 1018.0
20240615122513 68 1 2.0 8.0 0.00 0.06 0.00 87 1017.9
20240615122447 69 5 2.0 8.0 0.00 0.06 0.00 84 1018.0
20240615121711 68 31 2.0 5.0 0.00 0.06 0.00 87 1017.7
20240615120903 68 9 2.0 4.0 0.00 0.06 0.00 88 1017.7
20240615120404 67 57 2.0 8.0 0.00 0.06 0.00 90 1017.8
20240615115904 67 264 2.0 8.0 0.00 0.06 0.00 90 1017.8
20240615115714 67 291 2.0 8.0 0.00 0.06 0.00 90 1017.8
20240615114904 67 329 2.0 8.0 0.00 0.06 0.00 91 1017.8
20240615114405 66 339 2.0 8.0 0.00 0.06 0.00 91 1017.8
20240615114204 66 90 2.0 7.0 0.00 0.06 0.00 92 1017.8
20240615113400 66 14 1.0 7.0 0.00 0.06 0.00 92 1017.7
20240615112901 65 14 1.0 5.0 0.00 0.06 0.00 93 1017.7
20240615112401 65 331 1.0 5.0 0.00 0.06 0.00 93 1017.4
20240615111901 65 331 1.0 4.0 0.00 0.06 0.00 93 1017.4
20240615111503 65 13 1.0 9.0 0.00 0.06 0.00 94 1017.4
20240615111442 65 14 1.0 9.0 0.00 0.06 0.00 93 1017.5
20240615110400 64 17 1.0 5.0 0.00 0.06 0.00 94 1017.3
20240615105901 64 48 1.0 5.0 0.00 0.06 0.00 95 1017.2
20240615105400 64 5 1.0 5.0 0.00 0.06 0.00 95 1017.3
20240615105201 64 14 0.0 3.0 0.00 0.06 0.00 95 1017.2
20240615104402 63 102 0.0 3.0 0.00 0.06 0.00 95 1017.1
20240615104204 63 5 0.0 1.0 0.00 0.06 0.00 94 1017.1
20240615103711 63 31 0.0 3.0 0.00 0.06 0.00 94 1017.0
20240615102904 63 31 0.0 3.0 0.00 0.06 0.00 94 1017.0
20240615102400 63 74 0.0 1.0 0.00 0.06 0.00 94 1016.9
20240615101901 63 31 0.0 1.0 0.00 0.06 0.00 94 1016.8
20240615101401 63 14 0.0 1.0 0.00 0.06 0.00 94 1016.7
20240615100903 63 31 0.0 1.0 0.00 0.06 0.00 94 1016.7
20240615100402 63 163 0.0 1.0 0.00 0.06 0.00 94 1016.7
20240615095901 63 74 0.0 4.0 0.00 0.06 0.00 94 1016.6
20240615095400 63 14 1.0 4.0 0.00 0.06 0.00 94 1016.6
20240615094859 63 336 1.0 3.0 0.00 0.06 0.00 94 1016.6
20240615094358 63 74 1.0 4.0 0.00 0.06 0.00 94 1016.2
20240615093900 63 329 1.0 4.0 0.00 0.06 0.00 94 1016.2
20240615093359 63 309 0.0 4.0 0.00 0.06 0.00 93 1016.2
20240615092859 63 74 1.0 4.0 0.00 0.06 0.00 93 1016.0
20240615092512 63 13 1.0 4.0 0.00 0.06 0.00 93 1015.9
20240615092439 63 74 1.0 4.0 0.00 0.06 0.00 93 1015.9
20240615091356 63 14 1.0 4.0 0.00 0.06 0.00 94 1015.8
20240615090856 63 31 1.0 4.0 0.00 0.06 0.00 94 1015.4
20240615090356 63 31 1.0 5.0 0.00 0.06 0.00 94 1015.3
20240615085854 63 31 1.0 5.0 0.00 0.06 0.00 94 1015.3
20240615085703 64 299 1.0 4.0 0.00 0.06 0.00 94 1015.3
20240615084855 64 309 1.0 4.0 0.00 0.06 0.00 94 1015.2
20240615084355 64 332 1.0 3.0 0.00 0.06 0.00 94 1015.1
20240615083854 64 329 0.0 3.0 0.00 0.06 0.00 94 1015.1
20240615083354 64 31 0.0 3.0 0.00 0.06 0.00 94 1015.1
20240615082853 64 5 0.0 1.0 0.00 0.06 0.00 94 1015.2
20240615082348 64 13 0.0 1.0 0.00 0.06 0.00 94 1015.1
20240615081847 64 48 0.0 1.0 0.00 0.06 0.00 94 1015.0
20240615081347 64 74 0.0 1.0 0.00 0.06 0.00 94 1015.0
20240615080844 64 31 0.0 1.0 0.00 0.06 0.00 94 1015.1
20240615080658 64 120 0.0 3.0 0.00 0.06 0.00 94 1015.0
20240615075841 64 48 0.0 3.0 0.00 0.06 0.00 94 1015.1
20240615075340 64 14 0.0 1.0 0.00 0.06 0.00 94 1015.1
20240615075138 65 14 0.0 1.0 0.00 0.06 0.00 94 1015.1
20240615074338 65 74 0.0 0.0 0.00 0.06 0.00 94 1015.0
20240615073836 65 13 0.0 1.0 0.00 0.06 0.00 93 1015.0
20240615073339 65 120 0.0 3.0 0.00 0.06 0.00 93 1015.0
20240615072837 65 31 0.0 3.0 0.00 0.06 0.00 93 1015.0
20240615072450 65 31 0.0 3.0 0.00 0.06 0.00 93 1014.8
20240615072421 65 31 0.0 3.0 0.00 0.06 0.00 93 1014.9
20240615071333 65 163 0.0 4.0 0.00 0.06 0.00 93 1014.8
20240615070833 65 31 1.0 4.0 0.00 0.06 0.00 92 1014.7
20240615070330 66 13 1.0 3.0 0.00 0.06 0.00 92 1014.6
20240615065831 66 20 0.0 3.0 0.00 0.06 0.00 93 1014.6
20240615065336 66 74 1.0 3.0 0.00 0.06 0.00 93 1014.6
20240615064835 66 14 1.0 4.0 0.00 0.06 0.00 93 1014.6
20240615064329 66 13 1.0 4.0 0.00 0.06 0.00 93 1014.6
20240615063824 66 329 0.0 3.0 0.00 0.06 0.00 94 1014.8
20240615063323 66 74 1.0 3.0 0.00 0.06 0.00 94 1014.9
20240615062821 67 0 1.0 3.0 0.00 0.06 0.00 94 1014.9
20240615062319 67 48 1.0 3.0 0.00 0.06 0.00 94 1014.9
20240615061818 67 31 1.0 5.0 0.00 0.06 0.00 94 1014.8
20240615061621 67 4 1.0 5.0 0.00 0.06 0.00 94 1015.0
20240615061118 67 13 1.0 4.0 0.00 0.06 0.00 94 1015.1
20240615060319 67 316 1.0 3.0 0.00 0.06 0.00 94 1015.1
20240615055818 67 14 0.0 3.0 0.00 0.06 0.00 94 1014.9
20240615055320 67 288 0.0 3.0 0.00 0.06 0.00 94 1014.8
20240615054817 67 299 1.0 3.0 0.00 0.06 0.00 94 1014.7
20240615054317 67 31 1.0 3.0 0.00 0.06 0.00 94 1014.7
20240615053819 68 316 1.0 3.0 0.00 0.06 0.00 94 1014.7
20240615053611 67 254 1.0 3.0 0.00 0.06 0.00 94 1014.6
20240615052817 67 225 1.0 3.0 0.00 0.06 0.00 94 1014.6
20240615052314 67 218 1.0 3.0 0.00 0.06 0.00 94 1014.6
20240615052112 67 235 0.0 1.0 0.00 0.06 0.00 94 1014.6
20240615051310 68 31 0.0 1.0 0.00 0.06 0.00 94 1014.5
20240615050811 68 74 0.0 1.0 0.00 0.06 0.00 94 1014.5
20240615050311 68 299 0.0 3.0 0.00 0.06 0.00 93 1014.7
20240615045809 68 74 0.0 3.0 0.00 0.06 0.00 93 1014.7
20240615045308 68 14 1.0 7.0 0.00 0.07 0.00 93 1014.9
20240615044809 68 316 1.0 7.0 0.00 0.07 0.00 93 1015.0
20240615044308 68 41 2.0 7.0 0.00 0.07 0.00 94 1015.0
20240615043809 68 309 2.0 7.0 0.00 0.07 0.00 94 1014.7
20240615043307 69 41 2.0 7.0 0.00 0.07 0.00 94 1014.7
20240615042809 69 321 1.0 7.0 0.00 0.07 0.00 94 1014.8
20240615042308 68 14 1.0 7.0 0.00 0.07 0.00 94 1014.9
20240615041809 69 316 0.0 3.0 0.00 0.07 0.00 94 1014.5
20240615041309 69 14 1.0 3.0 0.00 0.07 0.00 94 1014.4
20240615040809 69 299 1.0 3.0 0.00 0.07 0.00 94 1014.5
20240615040308 69 325 1.0 3.0 0.00 0.07 0.00 94 1014.4
20240615035807 69 13 0.0 3.0 0.00 0.07 0.07 94 1014.5
20240615035310 69 325 0.0 1.0 0.00 0.07 0.07 94 1014.3
20240615034804 69 31 0.0 1.0 0.00 0.07 0.07 94 1014.2
20240615034304 69 163 0.0 1.0 0.00 0.07 0.07 94 1014.1
20240615033802 69 120 0.0 1.0 0.00 0.07 0.07 94 1014.3
20240615033302 69 145 0.0 1.0 0.00 0.07 0.07 94 1014.5
20240615032803 69 31 0.0 3.0 0.00 0.07 0.07 94 1014.5
20240615032305 69 163 0.0 3.0 0.00 0.07 0.07 94 1014.4
20240615031802 69 299 0.0 3.0 0.00 0.07 0.07 93 1014.3
20240615031301 69 31 0.0 1.0 0.00 0.07 0.07 93 1014.0
20240615030804 69 74 0.0 1.0 0.00 0.07 0.07 93 1014.0
20240615030302 69 14 0.0 1.0 0.00 0.07 0.07 93 1013.9
20240615025909 69 31 0.0 1.0 0.00 0.07 0.07 92 1013.9
20240615025848 69 208 0.0 1.0 0.00 0.07 0.07 92 1013.9
20240615024759 69 163 0.0 1.0 0.01 0.07 0.07 92 1013.9
20240615024258 70 74 0.0 1.0 0.05 0.07 0.07 92 1013.9
20240615023758 70 31 0.0 3.0 0.06 0.07 0.07 92 1014.0
20240615023259 70 120 1.0 3.0 0.06 0.07 0.07 92 1013.9
20240615022757 70 254 0.0 3.0 0.06 0.07 0.07 91 1013.8
20240615022259 70 191 0.0 3.0 0.06 0.07 0.07 90 1013.8
20240615021758 70 31 0.0 4.0 0.06 0.07 0.07 90 1014.0
20240615021259 70 14 1.0 4.0 0.06 0.07 0.07 89 1014.1
20240615021059 70 254 0.0 3.0 0.06 0.07 0.07 89 1014.0
20240615020254 71 31 0.0 3.0 0.06 0.07 0.07 88 1013.8
20240615015757 71 74 2.0 11.0 0.06 0.07 0.07 86 1014.0
20240615015254 72 31 3.0 11.0 0.06 0.07 0.07 82 1014.2
20240615014755 74 36 5.0 27.0 0.05 0.06 0.05 79 1014.2
20240615014255 77 299 6.0 27.0 0.01 0.02 0.01 69 1014.1
20240615013756 78 314 4.0 15.0 0.00 0.01 0.01 65 1013.9
20240615013254 78 320 3.0 14.0 0.00 0.01 0.01 64 1013.9
20240615012756 78 329 2.0 14.0 0.00 0.01 0.01 65 1013.6
20240615012254 78 280 1.0 5.0 0.00 0.01 0.01 65 1013.1
20240615011755 78 48 1.0 5.0 0.00 0.01 0.01 65 1012.8
20240615011254 78 20 1.0 5.0 0.00 0.01 0.01 64 1012.8
20240615010754 78 14 1.0 4.0 0.00 0.01 0.01 65 1012.7
20240615010253 77 334 0.0 3.0 0.00 0.01 0.01 65 1012.7
20240615005755 77 31 0.0 3.0 0.00 0.01 0.01 64 1012.6
20240615005257 78 74 0.0 1.0 0.00 0.01 0.01 63 1012.5
20240615004758 78 14 0.0 1.0 0.00 0.01 0.01 62 1012.3
20240615004255 78 163 0.0 1.0 0.00 0.01 0.01 62 1012.1
20240615003748 79 31 0.0 1.0 0.00 0.01 0.01 61 1011.8
20240615003244 79 31 0.0 1.0 0.00 0.01 0.01 60 1011.7
20240615002741 80 163 0.0 1.0 0.00 0.01 0.01 58 1011.6
20240615002553 80 14 0.0 3.0 0.00 0.01 0.01 58 1011.6
20240615001743 80 14 0.0 3.0 0.00 0.01 0.01 56 1011.6
20240615001359 81 61 1.0 4.0 0.00 0.01 0.01 55 1011.6
20240615001335 81 31 0.0 4.0 0.00 0.01 0.01 55 1011.6
20240615000241 81 31 1.0 3.0 0.00 0.01 0.01 54 1011.4
20240614235740 81 13 1.0 4.0 0.00 0.01 0.01 55 1011.3
20240614235239 82 163 1.0 4.0 0.00 0.01 0.01 53 1011.1
20240614234741 82 163 1.0 3.0 0.00 0.01 0.01 53 1011.1
20240614234239 82 299 1.0 3.0 0.00 0.01 0.01 52 1011.1
20240614233738 83 31 1.0 4.0 0.00 0.01 0.01 53 1011.1
20240614233237 83 48 1.0 5.0 0.00 0.01 0.01 52 1011.1
20240614233040 83 66 1.0 5.0 0.00 0.01 0.01 53 1011.2
20240614232235 83 74 0.0 4.0 0.00 0.01 0.01 53 1011.1
20240614231736 84 31 0.0 3.0 0.00 0.01 0.01 54 1011.0
20240614231233 84 31 1.0 5.0 0.00 0.01 0.01 54 1011.1
20240614230733 83 31 1.0 7.0 0.00 0.01 0.01 55 1011.2
20240614230539 84 321 1.0 7.0 0.00 0.01 0.01 57 1011.4
20240614225733 83 208 1.0 7.0 0.00 0.01 0.01 56 1011.3
20240614225233 84 31 1.0 4.0 0.00 0.01 0.01 56 1011.3
20240614224731 84 31 1.0 4.0 0.00 0.01 0.01 55 1011.4
20240614224233 84 299 1.0 4.0 0.00 0.01 0.01 57 1011.4
20240614223731 84 299 0.0 3.0 0.00 0.01 0.01 57 1011.3
20240614223549 84 309 1.0 4.0 0.00 0.01 0.01 55 1011.4
20240614222732 84 14 1.0 4.0 0.00 0.01 0.01 56 1011.2
20240614222659 85 120 1.0 4.0 0.00 0.01 0.01 55 1011.1
20240614222650 85 334 1.0 4.0 0.00 0.01 0.01 55 1011.2
20240614221233 85 288 1.0 4.0 0.00 0.01 0.01 55 1011.1
20240614220733 85 321 1.0 4.0 0.00 0.01 0.01 55 1011.0
20240614220541 85 74 1.0 4.0 0.00 0.01 0.01 56 1011.1
20240614220032 85 0 2.0 7.0 0.00 0.01 0.01 56 1011.1
20240614215230 85 13 1.0 7.0 0.00 0.01 0.01 56 1011.1
20240614214730 86 31 1.0 4.0 0.00 0.01 0.01 54 1011.1
20240614214230 86 57 1.0 4.0 0.00 0.01 0.01 52 1011.2
20240614213731 86 331 1.0 5.0 0.00 0.01 0.01 55 1011.1
20240614213230 85 17 1.0 5.0 0.00 0.01 0.01 55 1011.2
20240614212730 86 13 1.0 5.0 0.00 0.01 0.01 55 1011.3
20240614212230 85 281 1.0 5.0 0.00 0.01 0.01 57 1011.3
20240614211731 85 31 1.0 8.0 0.00 0.01 0.01 55 1011.4
20240614211229 85 14 1.0 8.0 0.00 0.01 0.01 54 1011.5
20240614211031 85 14 1.0 5.0 0.00 0.01 0.01 57 1011.4
20240614210229 85 329 1.0 5.0 0.00 0.01 0.01 57 1011.4
20240614205733 85 325 1.0 4.0 0.00 0.01 0.01 53 1011.4
20240614205233 86 320 1.0 4.0 0.00 0.01 0.01 52 1011.4
20240614204733 86 5 2.0 5.0 0.00 0.01 0.01 50 1011.4
20240614204230 86 31 2.0 5.0 0.00 0.01 0.01 50 1011.4
20240614204034 86 14 1.0 5.0 0.00 0.01 0.01 50 1011.5
20240614203534 86 14 1.0 7.0 0.00 0.01 0.01 50 1011.5
20240614202730 86 25 2.0 11.0 0.00 0.01 0.01 49 1011.6
20240614202226 87 8 2.0 11.0 0.00 0.01 0.01 48 1011.6
20240614201718 87 14 2.0 12.0 0.00 0.01 0.01 47 1011.6
20240614201514 87 14 2.0 12.0 0.00 0.01 0.01 46 1011.7
20240614200706 87 327 3.0 9.0 0.00 0.01 0.01 46 1011.6
20240614200205 87 325 2.0 9.0 0.00 0.01 0.01 46 1011.6
20240614195703 88 339 2.0 9.0 0.00 0.01 0.01 45 1011.7
20240614195204 87 48 3.0 14.0 0.00 0.01 0.01 45 1011.8
20240614194703 88 336 3.0 14.0 0.00 0.01 0.01 46 1011.7
20240614194203 88 61 2.0 9.0 0.00 0.01 0.01 46 1011.8
20240614193702 89 331 3.0 9.0 0.00 0.01 0.01 45 1011.8
20240614193203 89 321 3.0 15.0 0.00 0.01 0.01 43 1011.9
20240614192701 89 31 4.0 16.0 0.00 0.01 0.01 45 1011.9
20240614192459 89 14 4.0 16.0 0.00 0.01 0.01 44 1011.9
20240614191810 90 273 3.0 9.0 0.00 0.01 0.01 42 1011.9
20240614191744 89 336 3.0 12.0 0.00 0.01 0.01 45 1011.9
20240614190702 91 281 3.0 11.0 0.00 0.01 0.01 40 1011.9
20240614190201 92 299 2.0 11.0 0.00 0.01 0.01 39 1011.9
20240614190007 92 14 2.0 8.0 0.00 0.01 0.01 39 1012.0
20240614185201 92 31 2.0 9.0 0.00 0.01 0.01 38 1012.0
20240614184700 92 31 2.0 9.0 0.00 0.01 0.01 37 1012.1
20240614184202 92 14 2.0 7.0 0.00 0.01 0.01 39 1012.1
20240614183702 92 74 2.0 9.0 0.00 0.01 0.01 39 1012.2
20240614183201 91 294 2.0 9.0 0.00 0.01 0.01 41 1012.2
20240614182702 91 61 2.0 11.0 0.00 0.01 0.01 40 1012.2
20240614182201 89 200 3.0 11.0 0.00 0.01 0.01 41 1012.3
20240614181740 90 163 2.0 7.0 0.00 0.01 0.01 38 1012.2
20240614181733 91 109 2.0 7.0 0.00 0.01 0.01 36 1012.2
20240614181728 90 4 2.0 7.0 0.00 0.01 0.01 39 1012.3
20240614181712 89 320 2.0 11.0 0.00 0.01 0.01 41 1012.3
20240614175705 91 275 1.0 4.0 0.00 0.01 0.01 38 1012.3
20240614175205 90 115 1.0 5.0 0.00 0.01 0.01 37 1012.4
20240614174704 90 31 2.0 8.0 0.00 0.01 0.01 37 1012.5
20240614174202 89 31 1.0 8.0 0.00 0.01 0.01 42 1012.5
20240614173702 90 313 2.0 5.0 0.00 0.01 0.01 42 1012.6
20240614173200 90 316 3.0 8.0 0.00 0.01 0.01 39 1012.8
20240614172702 91 280 2.0 8.0 0.00 0.01 0.01 39 1012.8
20240614172201 90 309 2.0 7.0 0.00 0.01 0.01 39 1012.8
20240614171702 89 269 2.0 7.0 0.00 0.01 0.01 39 1012.8
20240614171201 89 163 1.0 5.0 0.00 0.01 0.01 42 1012.8
20240614170702 89 57 1.0 4.0 0.00 0.01 0.01 42 1013.0
20240614170201 89 74 2.0 7.0 0.00 0.01 0.01 43 1013.2
20240614165701 89 235 1.0 7.0 0.00 0.01 0.01 43 1013.3
20240614165202 88 254 1.0 4.0 0.00 0.01 0.01 43 1013.3
20240614164700 89 93 1.0 4.0 0.00 0.01 0.01 43 1013.2
20240614164204 88 61 1.0 4.0 0.00 0.01 0.01 44 1013.3
20240614163702 88 102 1.0 3.0 0.00 0.01 0.01 42 1013.2
20240614163202 88 74 1.0 4.0 0.00 0.01 0.01 42 1013.3
20240614162701 88 41 1.0 5.0 0.00 0.01 0.01 42 1013.5
20240614162202 87 24 1.0 5.0 0.00 0.01 0.01 49 1013.5
20240614161808 87 74 2.0 7.0 0.00 0.01 0.01 44 1013.6
20240614161747 88 38 1.0 7.0 0.00 0.01 0.01 47 1013.5
20240614160700 87 74 3.0 8.0 0.00 0.01 0.01 46 1013.6
20240614160459 87 288 3.0 11.0 0.00 0.01 0.01 48 1013.6
20240614155959 86 254 3.0 11.0 0.00 0.01 0.01 47 1013.7
20240614155158 86 237 3.0 12.0 0.00 0.01 0.01 48 1013.7
20240614154700 86 259 2.0 12.0 0.00 0.01 0.01 48 1013.7
20240614154158 86 268 2.0 8.0 0.00 0.01 0.01 52 1013.9
20240614153657 85 203 2.0 4.0 0.00 0.01 0.01 54 1013.7
20240614153157 85 163 1.0 4.0 0.00 0.01 0.01 53 1013.8
20240614152657 84 295 2.0 7.0 0.00 0.01 0.01 54 1013.8
20240614152459 83 208 2.0 8.0 0.00 0.01 0.01 55 1013.8
20240614151658 83 254 3.0 8.0 0.00 0.01 0.01 53 1014.1
20240614151452 83 175 2.0 7.0 0.00 0.01 0.01 60 1014.2
20240614150657 83 280 1.0 5.0 0.00 0.01 0.01 63 1014.2
20240614150159 82 316 1.0 3.0 0.00 0.01 0.01 63 1014.2
20240614145657 82 271 1.0 5.0 0.00 0.01 0.01 64 1014.2
20240614145157 82 20 1.0 5.0 0.00 0.01 0.01 64 1014.1
20240614144700 81 275 1.0 4.0 0.00 0.01 0.01 65 1014.1
20240614144457 81 254 1.0 4.0 0.00 0.01 0.01 64 1014.1
20240614143700 80 299 1.0 4.0 0.00 0.01 0.01 66 1014.3
20240614143158 80 218 1.0 5.0 0.00 0.01 0.01 66 1014.4
20240614142700 80 281 2.0 5.0 0.00 0.01 0.01 66 1014.5
20240614142158 80 237 2.0 5.0 0.00 0.01 0.01 65 1014.5
20240614141701 80 261 2.0 5.0 0.00 0.01 0.01 70 1014.5
20240614141155 80 254 1.0 5.0 0.00 0.01 0.01 71 1014.5
20240614140654 80 335 0.0 3.0 0.00 0.01 0.01 70 1014.4
20240614140250 79 316 1.0 4.0 0.00 0.01 0.01 73 1014.5
20240614140234 79 31 0.0 3.0 0.00 0.01 0.01 72 1014.5
20240614135452 78 57 1.0 4.0 0.00 0.01 0.01 70 1014.4
20240614134654 78 299 1.0 5.0 0.00 0.01 0.01 73 1014.4
20240614134452 78 230 1.0 5.0 0.00 0.01 0.01 74 1014.3
20240614133654 77 264 1.0 4.0 0.00 0.01 0.01 73 1014.4
20240614133154 77 254 1.0 4.0 0.00 0.01 0.01 75 1014.3
20240614132654 76 309 1.0 4.0 0.00 0.01 0.01 76 1014.3
20240614132154 76 271 1.0 4.0 0.00 0.01 0.01 76 1014.2